Location: Drignac
(45.1667°N, 2.0333°E)
Time: 08:03:52
(UTC+00:00)

Cosmos 1745 Rocket - Pass Details

Date: 29 March 2020
Orbit: 952 x 999 km, 83.0° (Epoch: 02 June)

Event Time Altitude Azimuth Distance (km) Brightness Sun altitude
Rises 19:04:53 0° 350° (N) 3,720 7.4 -9.2°
Reaches altitude 10° 19:07:26 10° 350° (N) 2,762 6.7 -9.7°
Maximum altitude 19:13:46 82° 264° (W) 998 4.2 -10.7°
Drops below altitude 10° 19:20:00 10° 178° (S) 2,712 6.1 -11.8°
Sets 19:22:28 0° 177° (S) 3,648 6.8 -12.2°
